DW8522 Weather Reports


Display with metric or nautical units.
time (UTC)temp
F
wind
direction
speed
MPH
gust
MPH
rain 1hr
in
rain 24hr
in
rain mn
in
humidity
%
barometer
mb
20260508101521 65 239 5.0 10.0 0.00 0.24 0.24 93 1009.9
20260508100019 65 311 2.0 9.0 0.00 0.24 0.24 93 1010.1
20260508094515 65 113 2.0 10.0 0.00 0.24 0.24 92 1010.3
20260508093014 65 295 4.0 15.0 0.00 0.24 0.24 92 1010.2
20260508091512 65 113 5.0 12.0 0.00 0.24 0.24 93 1010.5
20260508090010 65 70 2.0 9.0 0.00 0.24 0.24 93 1010.6
20260508084508 65 168 3.0 11.0 0.00 0.24 0.24 94 1010.9
20260508083006 65 33 2.0 8.0 0.00 0.24 0.24 94 1011.0
20260508081515 65 107 2.0 9.0 0.00 0.24 0.24 94 1011.1
20260508080006 64 105 2.0 10.0 0.00 0.24 0.24 93 1010.9
20260508074505 64 73 3.0 8.0 0.00 0.24 0.24 93 1011.1
20260508073003 64 98 2.0 7.0 0.00 0.24 0.24 94 1011.2
20260508071502 64 46 1.0 6.0 0.00 0.24 0.24 93 1011.4
20260508070104 64 147 4.0 10.0 0.00 0.24 0.24 93 1011.7
20260508064700 64 176 2.0 10.0 0.00 0.24 0.24 92 1011.4
20260508063106 65 72 4.0 10.0 0.00 0.24 0.24 91 1011.9
20260508061557 65 342 3.0 8.0 0.00 0.24 0.24 90 1012.2
20260508060056 65 125 3.0 9.0 0.00 0.24 0.24 91 1012.4
20260508054553 65 8 3.0 9.0 0.00 0.24 0.24 91 1012.6
20260508053055 65 109 2.0 10.0 0.00 0.24 0.24 91 1012.6
20260508051552 65 110 2.0 8.0 0.00 0.24 0.24 91 1013.1
20260508050051 65 127 2.0 7.0 0.00 0.24 0.24 91 1013.0
20260508044547 65 59 1.0 9.0 0.00 0.24 0.24 91 1013.4
20260508043045 65 47 3.0 9.0 0.00 0.24 0.24 91 1013.3
20260508041545 65 73 4.0 12.0 0.00 0.24 0.24 91 1013.3
20260508040050 65 114 3.0 8.0 0.00 0.24 0.24 91 1013.6
20260508034542 65 46 3.0 8.0 0.01 0.24 0.24 91 1013.6
20260508033041 65 79 3.0 8.0 0.01 0.24 0.24 92 1013.7
20260508031539 64 53 5.0 10.0 0.01 0.24 0.24 93 1013.9
20260508030039 64 129 2.0 10.0 0.05 0.24 0.24 94 1014.2
20260508024546 64 102 3.0 8.0 0.04 0.24 0.24 95 1014.4
20260508023035 63 84 2.0 8.0 0.04 0.24 0.24 94 1014.5
20260508021534 64 84 2.0 7.0 0.04 0.24 0.24 93 1014.8
20260508020033 64 329 2.0 4.0 0.00 0.20 0.20 93 1015.0
20260508014537 65 80 1.0 6.0 0.00 0.20 0.20 93 1015.3
20260508013027 65 116 1.0 5.0 0.03 0.20 0.20 93 1015.7
20260508011528 65 79 1.0 5.0 0.07 0.20 0.20 94 1015.7
20260508010033 65 105 2.0 7.0 0.10 0.20 0.20 94 1015.5
20260508004523 64 68 1.0 7.0 0.10 0.20 0.20 93 1016.1
20260508003020 65 342 2.0 7.0 0.07 0.17 0.17 91 1016.5
20260508001518 66 102 1.0 6.0 0.02 0.12 0.12 89 1016.6
20260508000015 66 81 2.0 9.0 0.01 0.09 0.09 90 1017.0
20260507234517 65 88 2.0 6.0 0.01 0.09 0.09 91 1017.3
20260507233028 64 104 1.0 6.0 0.01 0.09 0.09 91 1017.6
20260507231509 65 120 5.0 17.0 0.01 0.09 0.09 88 1017.8
20260507230008 67 75 3.0 9.0 0.00 0.09 0.09 83 1017.8
20260507224508 68 120 2.0 7.0 0.00 0.09 0.09 84 1017.8
20260507223006 68 155 1.0 5.0 0.00 0.09 0.09 84 1018.0
20260507221510 67 103 2.0 6.0 0.00 0.09 0.09 86 1018.1
20260507220003 66 111 1.0 5.0 0.00 0.09 0.09 89 1018.2
20260507214502 66 128 2.0 7.0 0.00 0.09 0.09 88 1018.2
20260507213104 66 98 2.0 6.0 0.00 0.09 0.09 88 1018.3
20260507211615 67 68 1.0 6.0 0.00 0.09 0.09 88 1018.5
20260507210106 67 110 2.0 5.0 0.00 0.09 0.09 87 1018.6
20260507204558 67 102 1.0 5.0 0.00 0.09 0.09 91 1018.4
20260507203105 65 80 2.0 6.0 0.00 0.09 0.09 92 1018.4
20260507201557 64 123 0.0 7.0 0.00 0.09 0.09 93 1018.7
20260507200103 64 87 2.0 6.0 0.00 0.09 0.09 93 1018.4
20260507194547 64 105 2.0 7.0 0.00 0.09 0.09 94 1018.3
20260507193049 63 84 1.0 5.0 0.00 0.09 0.09 95 1018.4
20260507191545 63 103 1.0 8.0 0.00 0.09 0.09 96 1018.5
20260507190048 63 101 1.0 4.0 0.00 0.09 0.09 96 1018.5
20260507184547 62 107 1.0 7.0 0.00 0.09 0.09 97 1018.5
20260507183046 62 68 2.0 6.0 0.00 0.09 0.09 97 1018.6
20260507181540 62 105 0.0 2.0 0.00 0.09 0.09 97 1018.8
20260507180045 61 119 0.0 1.0 0.00 0.09 0.09 97 1018.7
20260507174539 61 146 0.0 0.0 0.00 0.09 0.09 96 1018.9
20260507173037 61 147 0.0 0.0 0.00 0.09 0.09 96 1019.0
20260507171535 61 146 0.0 0.0 0.00 0.09 0.09 96 1019.1
20260507170037 61 146 0.0 0.0 0.00 0.09 0.09 96 1019.1
20260507164541 61 146 0.0 1.0 0.00 0.09 0.09 96 1019.1
20260507163033 61 146 0.0 0.0 0.00 0.09 0.09 96 1019.2
20260507161533 61 147 0.0 1.0 0.00 0.09 0.09 96 1019.1
20260507160032 62 147 0.0 0.0 0.00 0.09 0.09 96 1019.3
20260507154530 62 146 0.0 0.0 0.00 0.09 0.09 96 1019.5
20260507153026 62 147 0.0 0.0 0.00 0.09 0.09 96 1019.7
20260507151525 62 146 0.0 0.0 0.00 0.09 0.09 96 1019.9
20260507150025 62 146 0.0 1.0 0.01 0.09 0.09 95 1020.1
20260507144525 62 146 0.0 1.0 0.01 0.09 0.09 95 1020.3
20260507143017 62 96 0.0 1.0 0.05 0.09 0.09 95 1020.5
20260507141516 62 96 0.0 1.0 0.05 0.09 0.09 95 1020.6
20260507140014 62 96 0.0 3.0 0.04 0.08 0.08 95 1020.7
20260507134513 62 78 0.0 4.0 0.05 0.08 0.08 95 1020.8
20260507133011 62 74 2.0 6.0 0.04 0.04 0.04 95 1021.0
20260507131509 62 111 0.0 5.0 0.04 0.04 0.04 94 1021.1
20260507130006 63 88 1.0 5.0 0.04 0.04 0.04 93 1021.3
20260507124505 63 12 3.0 11.0 0.03 0.03 0.03 92 1021.5
20260507123006 64 105 1.0 5.0 0.00 0.00 0.00 92 1021.4
20260507121616 63 120 0.0 4.0 0.00 0.00 0.00 93 1021.5
20260507120103 63 82 1.0 3.0 0.00 0.00 0.00 94 1021.6
20260507114638 63 107 0.0 3.0 0.00 0.00 0.00 94 1021.6
20260507113054 61 116 0.0 2.0 0.00 0.00 0.00 95 1021.8
20260507111558 60 111 0.0 1.0 0.00 0.00 0.00 94 1022.0
20260507110052 59 112 0.0 1.0 0.00 0.00 0.00 93 1022.1
20260507104551 59 112 0.0 1.0 0.00 0.00 0.00 92 1022.3
20260507103048 60 111 0.0 1.0 0.00 0.00 0.00 91 1022.1